METEOR 2-17 DEB

Satellite information

Favourite Embed

Satellite Type and Status

DEBRISIN ORBIT

Key statistics

Satellite METEOR 2-17 DEB at a glance.

Uptime

13613

Days in orbit

Revolutions

≈ 14.0

Per day

Orbit

LEO

Low Earth Orbit

Inclination

82.5

Latest

Satellite identification and parameters

Extended collection of information and parameters for METEOR 2-17 DEB.

Object identification

Identified? True

Debris? True

Object name: METEOR 2-17 DEB

International designator: 1988-005AL

Object number (NORAD): 38283

Object ID (CCSDS): 38283

Country: COMMONWEALTH OF INDEPENDENT STATES (CIS)

Current information (Y/N): Y

RCS size: SMALL

Orbital parameters

Period: 102.852 minutes

Inclination: 82.5484 deg

SMA: 7271.672 km

Apoapsis: 900.846 km

Periapsis: 886.227 km

RAAN: 243.4368 deg

Eccentricy: 0.0010052

Argument of periapsis: 351.475 deg

Mean anomaly: 8.6247 deg

Mean motion: 14.00075248 rev/day

Mean motion (dot): 0.00003099 rev/day2

B* drag term: 0.0020942 1/REarth

Two-line elements (TLE)

Creation date: May 6, 2025, 3:54 a.m.

Reference frame: TEME

Reference center: EARTH

Epoch: May 5, 2025, 1:54 p.m. UTC

TLE line 0: 0 METEOR 2-17 DEB

TLE line 1: 1 38283U 88005AL 25125.57980482 .00003099 00000-0 20942-2 0 9993

TLE line 2: 2 38283 82.5484 243.4368 0010052 351.4750 8.6247 14.00075248 46682

Live tracking on map

Real-time ground track for satellite METEOR 2-17 DEB.

In-orbit conjunctions

A list of the most updated potential collisions computed for object METEOR 2-17 DEB.

Target Orbit TCA Probability of collision Miss distance Type
MSX SSO 2024-12-27 22:35:46 0.0002943857 145.0 (m) PAYLOAD
CZ-6A DEB SSO 2024-09-26 12:55:53 0.0005801986 429.0 (m) DEBRIS
FENGYUN 1C DEB SSO 2024-09-24 07:50:14 0.000166483 543.0 (m) DEBRIS

Associated space launch

Second generation soviet meteorological satellite

METEOR 2-17 DEB was lifted into orbit during the mission ‘Tsiklon-3 | Meteor-2 17’, on board a Tsiklon-3 space rocket.

The launch took place on Jan. 30, 1988, 10:59 a.m. from 32/1.

For more information about the launch, click the button.

Launch to space Tsiklon-3 | Meteor-2 17
Tsiklon-3 | Meteor-2 17

Agency: N/A

Status: Launch Successful

Launch date: Jan. 30, 1988, 10:59 a.m. UTC

Rocket: Tsiklon-3

Launch pad: 32/1

Location: Plesetsk Cosmodrome, Russian Federation

...

Latest news about this satellite

There are no fresh news available about this satellite. Check back as we update our databases every day.


Newsletter sign-up

Weekly statistics, charts and insights to help you stay on top of the space industry.